Time,TemperatureF,DewpointF,PressureIn,WindDirection,WindDirectionDegrees,WindSpeedMPH,WindSpeedGustMPH,Humidity,HourlyPrecipIn,Conditions,Clouds,dailyrainin,SoftwareType,DateUTC
2013-07-10 00:00:00,74.9,71.8,29.85,South,191,0.0,1.0,90,0.00,,,0.00,VWS V14.01,2013-07-10 04:00:00,
2013-07-10 00:01:00,74.9,71.8,29.85,South,191,0.0,0.0,90,0.00,,,0.00,VWS V14.01,2013-07-10 04:01:00,
2013-07-10 00:02:00,74.9,71.8,29.85,South,191,0.0,0.0,90,0.00,,,0.00,VWS V14.01,2013-07-10 04:02:00,
2013-07-10 00:03:00,75.0,71.9,29.85,South,191,0.0,0.0,90,0.00,,,0.00,VWS V14.01,2013-07-10 04:03:00,
2013-07-10 00:04:00,75.0,71.9,29.84,South,191,0.0,0.0,90,0.00,,,0.00,VWS V14.01,2013-07-10 04:04:00,
2013-07-10 00:09:00,75.0,71.9,29.85,South,191,0.0,1.0,90,0.00,,,0.00,VWS V14.01,2013-07-10 04:09:00,
2013-07-10 00:14:00,75.1,72.0,29.84,South,191,0.0,4.0,90,0.00,,,0.00,VWS V14.01,2013-07-10 04:14:00,
2013-07-10 00:15:00,75.1,72.0,29.84,South,191,0.0,4.0,90,0.00,,SCT033,0.00,VWS V15.00,2013-07-10 04:15:00,
2013-07-10 00:19:00,75.2,72.1,29.84,South,191,0.0,0.0,90,0.00,,,0.00,VWS V14.01,2013-07-10 04:19:00,
2013-07-10 00:24:00,75.2,72.1,29.84,South,191,0.0,0.0,90,0.00,,,0.00,VWS V14.01,2013-07-10 04:24:00,
2013-07-10 00:29:00,75.3,72.2,29.84,South,191,0.0,4.0,90,0.00,,,0.00,VWS V14.01,2013-07-10 04:29:00,
2013-07-10 00:30:00,75.3,72.2,29.84,South,184,0.0,4.0,90,0.00,,SCT033,0.00,VWS V15.00,2013-07-10 04:30:00,
2013-07-10 00:35:00,75.5,72.4,29.84,SSW,196,0.0,0.0,90,0.00,,,0.00,VWS V14.01,2013-07-10 04:35:00,
2013-07-10 00:40:00,75.6,72.5,29.84,SSW,196,0.0,0.0,90,0.00,,,0.00,VWS V14.01,2013-07-10 04:40:00,
2013-07-10 00:45:00,75.7,72.6,29.83,SSW,197,0.0,7.0,90,0.00,,,0.00,VWS V14.01,2013-07-10 04:45:00,
2013-07-10 00:50:00,75.8,73.0,29.83,SSW,197,0.0,0.0,91,0.00,,,0.00,VWS V14.01,2013-07-10 04:50:00,
2013-07-10 00:55:00,76.0,72.9,29.83,SSW,192,4.0,6.0,90,0.00,,,0.00,VWS V14.01,2013-07-10 04:55:00,
2013-07-10 01:00:00,76.0,72.9,29.84,SSW,200,0.0,1.0,90,0.00,,,0.00,VWS V14.01,2013-07-10 05:00:00,
2013-07-10 01:05:00,76.1,73.0,29.83,SW,214,0.0,6.0,90,0.00,,FEW045,0.00,VWS V14.01,2013-07-10 05:05:00,
2013-07-10 01:10:00,76.1,73.0,29.83,SSW,209,0.0,0.0,90,0.00,,FEW045,0.00,VWS V14.01,2013-07-10 05:10:00,
2013-07-10 01:15:00,76.2,73.1,29.83,SSW,208,0.0,4.0,90,0.00,,FEW045,0.00,VWS V14.01,2013-07-10 05:15:00,
2013-07-10 01:20:00,76.2,73.1,29.83,SSW,207,0.0,0.0,90,0.00,,FEW045,0.00,VWS V14.01,2013-07-10 05:20:00,
2013-07-10 01:25:00,76.3,73.2,29.82,SSW,206,0.0,4.0,90,0.00,,FEW045,0.00,VWS V14.01,2013-07-10 05:25:00,
2013-07-10 01:30:00,76.2,73.1,29.83,SSW,206,0.0,0.0,90,0.00,,FEW045,0.00,VWS V14.01,2013-07-10 05:30:00,
2013-07-10 01:35:00,76.3,73.2,29.83,SSW,206,0.0,0.0,90,0.00,,FEW045,0.00,VWS V14.01,2013-07-10 05:35:00,
2013-07-10 01:40:00,76.3,73.2,29.82,SSW,206,0.0,0.0,90,0.00,,FEW045,0.00,VWS V14.01,2013-07-10 05:40:00,
2013-07-10 01:45:00,76.4,73.6,29.83,SSW,206,0.0,0.0,91,0.00,,FEW045,0.00,VWS V14.01,2013-07-10 05:45:00,
2013-07-10 01:50:00,76.4,73.6,29.82,SSW,206,0.0,0.0,91,0.00,,FEW045,0.00,VWS V14.01,2013-07-10 05:50:00,
2013-07-10 01:55:00,76.5,73.7,29.82,SSW,207,0.0,0.0,91,0.00,,FEW045,0.00,VWS V14.01,2013-07-10 05:55:00,
2013-07-10 02:00:00,76.5,73.7,29.82,SW,218,0.0,1.0,91,0.00,,FEW045,0.00,VWS V14.01,2013-07-10 06:00:00,
2013-07-10 02:05:00,76.6,73.8,29.82,SW,214,0.0,0.0,91,0.00,,FEW045,0.00,VWS V14.01,2013-07-10 06:05:00,
2013-07-10 02:10:00,76.7,73.9,29.81,SW,214,0.0,0.0,91,0.00,,FEW045,0.00,VWS V14.01,2013-07-10 06:10:00,
2013-07-10 02:15:00,76.7,73.9,29.82,SW,214,0.0,5.0,91,0.00,,FEW045,0.00,VWS V14.01,2013-07-10 06:15:00,
2013-07-10 02:20:00,76.8,74.0,29.81,SSW,212,0.0,4.0,91,0.00,,FEW045,0.00,VWS V14.01,2013-07-10 06:20:00,
2013-07-10 02:25:00,76.9,74.1,29.81,SSW,207,0.0,6.0,91,0.00,,FEW045,0.00,VWS V14.01,2013-07-10 06:25:00,
2013-07-10 02:30:00,77.0,74.2,29.81,WSW,238,0.0,4.0,91,0.00,,FEW045,0.00,VWS V14.01,2013-07-10 06:30:00,
2013-07-10 02:36:00,77.1,74.6,29.81,SW,226,0.0,0.0,92,0.00,,FEW045,0.00,VWS V14.01,2013-07-10 06:36:00,
2013-07-10 02:41:00,77.2,74.7,29.81,WSW,253,4.0,6.0,92,0.00,,FEW045,0.00,VWS V14.01,2013-07-10 06:41:00,
2013-07-10 02:45:00,77.4,74.9,29.81,SSW,211,2.0,14.0,92,0.00,,SCT033,0.00,VWS V15.00,2013-07-10 06:45:00,
2013-07-10 02:46:00,77.4,74.9,29.81,SW,216,6.0,11.0,92,0.00,,FEW049,0.00,VWS V14.01,2013-07-10 06:46:00,
2013-07-10 02:51:00,77.6,75.1,29.80,SW,226,0.0,9.0,92,0.00,,FEW049,0.00,VWS V14.01,2013-07-10 06:51:00,
2013-07-10 02:56:00,77.8,75.3,29.81,SW,230,0.0,5.0,92,0.00,,FEW049,0.00,VWS V14.01,2013-07-10 06:56:00,
2013-07-10 03:00:00,77.9,75.4,29.80,WSW,253,0.0,9.0,92,0.00,,SCT033,0.00,VWS V15.00,2013-07-10 07:00:00,
2013-07-10 03:01:00,77.9,75.4,29.80,SW,234,1.0,5.0,92,0.00,,FEW049,0.00,VWS V14.01,2013-07-10 07:01:00,
2013-07-10 03:06:00,78.0,75.2,29.80,WSW,240,0.0,4.0,91,0.00,,FEW049,0.00,VWS V14.01,2013-07-10 07:06:00,
2013-07-10 03:11:00,78.1,75.3,29.80,WSW,242,5.0,8.0,91,0.00,,,0.00,VWS V14.01,2013-07-10 07:11:00,
2013-07-10 03:15:00,78.2,75.4,29.80,SW,230,0.0,8.0,91,0.00,,SCT033,0.00,VWS V15.00,2013-07-10 07:15:00,
2013-07-10 03:16:00,78.2,75.4,29.80,SW,230,0.0,0.0,91,0.00,,,0.00,VWS V14.01,2013-07-10 07:16:00,
2013-07-10 03:21:00,78.3,75.5,29.80,WSW,243,0.0,3.0,91,0.00,,,0.00,VWS V14.01,2013-07-10 07:21:00,
2013-07-10 03:26:00,78.4,75.2,29.80,SW,229,0.0,0.0,90,0.00,,,0.00,VWS V14.01,2013-07-10 07:26:00,
2013-07-10 03:30:00,78.4,75.2,29.80,SW,228,8.0,11.0,90,0.00,,SCT033,0.00,VWS V15.00,2013-07-10 07:30:00,
2013-07-10 03:31:00,78.5,75.3,29.81,WSW,240,0.0,7.0,90,0.00,,,0.00,VWS V14.01,2013-07-10 07:31:00,
2013-07-10 03:36:00,78.5,75.3,29.81,SSW,213,5.0,7.0,90,0.00,,,0.00,VWS V14.01,2013-07-10 07:36:00,
2013-07-10 03:41:00,78.5,75.3,29.80,SW,236,0.0,5.0,90,0.00,,,0.00,VWS V14.01,2013-07-10 07:41:00,
2013-07-10 03:45:00,78.5,75.3,29.80,SW,225,0.0,0.0,90,0.00,,SCT033,0.00,VWS V15.00,2013-07-10 07:45:00,
2013-07-10 03:46:00,78.5,75.3,29.80,WSW,238,0.0,5.0,90,0.00,,,0.00,VWS V14.01,2013-07-10 07:46:00,
2013-07-10 03:51:00,78.5,75.3,29.81,WSW,242,6.0,8.0,90,0.00,,,0.00,VWS V14.01,2013-07-10 07:51:00,
2013-07-10 03:56:00,78.5,75.0,29.81,SW,227,0.0,12.0,89,0.00,,,0.00,VWS V14.01,2013-07-10 07:56:00,
2013-07-10 04:00:00,78.4,74.9,29.80,SW,218,0.0,4.0,89,0.00,,SCT033,0.00,VWS V15.00,2013-07-10 08:00:00,
2013-07-10 04:01:00,78.4,74.9,29.81,SW,218,8.0,13.0,89,0.00,,,0.00,VWS V14.01,2013-07-10 08:01:00,
2013-07-10 04:06:00,78.3,74.8,29.80,WSW,249,3.0,7.0,89,0.00,,,0.00,VWS V14.01,2013-07-10 08:06:00,
2013-07-10 04:11:00,78.1,74.6,29.81,WSW,240,3.0,5.0,89,0.00,,,0.00,VWS V14.01,2013-07-10 08:11:00,
2013-07-10 04:15:00,78.1,74.6,29.81,SW,222,1.0,8.0,89,0.00,,SCT033,0.00,VWS V15.00,2013-07-10 08:15:00,
2013-07-10 04:16:00,78.1,74.6,29.81,SW,222,0.0,0.0,89,0.00,,,0.00,VWS V14.01,2013-07-10 08:16:00,
2013-07-10 04:21:00,78.0,74.5,29.81,SW,236,9.0,9.0,89,0.00,,,0.00,VWS V14.01,2013-07-10 08:21:00,
2013-07-10 04:26:00,77.8,74.3,29.81,SW,225,0.0,0.0,89,0.00,,,0.00,VWS V14.01,2013-07-10 08:26:00,
2013-07-10 04:30:00,77.7,74.2,29.81,SW,233,0.0,1.0,89,0.00,,SCT033,0.00,VWS V15.00,2013-07-10 08:30:00,
2013-07-10 04:31:00,77.6,74.1,29.81,SW,231,0.0,0.0,89,0.00,,,0.00,VWS V14.01,2013-07-10 08:31:00,
2013-07-10 04:37:00,77.5,74.0,29.81,WSW,240,0.0,0.0,89,0.00,,,0.00,VWS V14.01,2013-07-10 08:37:00,
2013-07-10 04:42:00,77.3,73.8,29.81,SW,222,0.0,0.0,89,0.00,,,0.00,VWS V14.01,2013-07-10 08:42:00,
2013-07-10 04:45:00,77.2,73.7,29.81,SW,236,0.0,0.0,89,0.00,,SCT033,0.00,VWS V15.00,2013-07-10 08:45:00,
2013-07-10 04:47:00,77.2,73.7,29.81,SW,234,0.0,5.0,89,0.00,,,0.00,VWS V14.01,2013-07-10 08:47:00,
2013-07-10 04:52:00,77.0,73.5,29.81,WSW,258,0.0,0.0,89,0.00,,,0.00,VWS V14.01,2013-07-10 08:52:00,
2013-07-10 04:57:00,76.9,73.4,29.81,WSW,256,0.0,0.0,89,0.00,,,0.00,VWS V14.01,2013-07-10 08:57:00,
2013-07-10 05:00:00,76.7,73.6,29.81,WSW,239,0.0,0.0,90,0.00,,SCT033,0.00,VWS V15.00,2013-07-10 09:00:00,
2013-07-10 05:02:00,76.7,73.6,29.81,SW,236,0.0,0.0,90,0.00,,FEW015,0.00,VWS V14.01,2013-07-10 09:02:00,
2013-07-10 05:07:00,76.5,73.3,29.81,SW,228,0.0,0.0,90,0.00,,FEW015,0.00,VWS V14.01,2013-07-10 09:07:00,
2013-07-10 05:12:00,76.4,73.2,29.81,SW,218,0.0,0.0,90,0.00,,FEW015,0.00,VWS V14.01,2013-07-10 09:12:00,
2013-07-10 05:15:00,76.3,73.2,29.81,SW,218,0.0,0.0,90,0.00,,SCT033,0.00,VWS V15.00,2013-07-10 09:15:00,
2013-07-10 05:17:00,76.2,73.1,29.81,SW,226,0.0,3.0,90,0.00,,FEW015,0.00,VWS V14.01,2013-07-10 09:17:00,
2013-07-10 05:22:00,76.1,73.0,29.81,SW,222,0.0,0.0,90,0.00,,FEW015,0.00,VWS V14.01,2013-07-10 09:22:00,
2013-07-10 05:27:00,75.9,72.8,29.81,WSW,238,2.0,2.0,90,0.00,,FEW015,0.00,VWS V14.01,2013-07-10 09:27:00,
2013-07-10 05:30:00,75.8,72.7,29.81,WSW,238,0.0,0.0,90,0.00,,SCT033,0.00,VWS V15.00,2013-07-10 09:30:00,
2013-07-10 05:32:00,75.8,72.7,29.81,West,270,0.0,1.0,90,0.00,,FEW015,0.00,VWS V14.01,2013-07-10 09:32:00,
2013-07-10 05:37:00,75.6,72.5,29.81,WSW,245,0.0,0.0,90,0.00,,FEW015,0.00,VWS V14.01,2013-07-10 09:37:00,
2013-07-10 05:42:00,75.6,72.5,29.81,WSW,245,0.0,0.0,90,0.00,,FEW015,0.00,VWS V14.01,2013-07-10 09:42:00,
2013-07-10 05:45:00,75.5,72.4,29.82,WSW,245,0.0,1.0,90,0.00,,SCT033,0.00,VWS V15.00,2013-07-10 09:45:00,
2013-07-10 05:47:00,75.5,72.4,29.81,SW,236,0.0,0.0,90,0.00,,FEW015,0.00,VWS V14.01,2013-07-10 09:47:00,
2013-07-10 05:52:00,75.4,72.6,29.81,SW,236,0.0,0.0,91,0.00,,FEW015,0.00,VWS V14.01,2013-07-10 09:52:00,
2013-07-10 05:57:00,75.3,72.5,29.82,SW,236,0.0,0.0,91,0.00,,FEW015,0.00,VWS V14.01,2013-07-10 09:57:00,
2013-07-10 06:00:00,75.3,72.5,29.82,WSW,240,0.0,0.0,91,0.00,,SCT033,0.00,VWS V15.00,2013-07-10 10:00:00,
2013-07-10 06:02:00,75.3,72.5,29.82,WSW,240,0.0,0.0,91,0.00,,FEW060,0.00,VWS V14.01,2013-07-10 10:02:00,
2013-07-10 06:07:00,75.2,72.4,29.82,WSW,249,0.0,0.0,91,0.00,,FEW060,0.00,VWS V14.01,2013-07-10 10:07:00,
2013-07-10 06:13:00,75.1,72.3,29.82,WSW,249,0.0,0.0,91,0.00,,FEW060,0.00,VWS V14.01,2013-07-10 10:13:00,
2013-07-10 06:15:00,75.1,72.3,29.82,WSW,245,0.0,0.0,91,0.00,,SCT033,0.00,VWS V15.00,2013-07-10 10:15:00,
2013-07-10 06:18:00,75.0,72.2,29.82,WSW,245,0.0,0.0,91,0.00,,FEW060,0.00,VWS V14.01,2013-07-10 10:18:00,
2013-07-10 06:23:00,74.9,72.1,29.82,WSW,245,0.0,0.0,91,0.00,,FEW060,0.00,VWS V14.01,2013-07-10 10:23:00,
2013-07-10 06:28:00,74.9,72.1,29.82,WSW,245,0.0,0.0,91,0.00,,FEW060,0.00,VWS V14.01,2013-07-10 10:28:00,
2013-07-10 06:30:00,74.9,72.1,29.82,WSW,245,0.0,0.0,91,0.00,,SCT033,0.00,VWS V15.00,2013-07-10 10:30:00,
2013-07-10 06:33:00,74.8,72.0,29.82,WSW,245,0.0,0.0,91,0.00,,FEW060,0.00,VWS V14.01,2013-07-10 10:33:00,
2013-07-10 06:38:00,74.8,72.0,29.82,WSW,245,0.0,0.0,91,0.00,,,0.00,VWS V14.01,2013-07-10 10:38:00,
2013-07-10 06:43:00,74.7,72.2,29.82,WSW,245,0.0,0.0,92,0.00,,,0.00,VWS V14.01,2013-07-10 10:43:00,
2013-07-10 06:45:00,74.7,72.2,29.82,NNW,330,0.0,0.0,92,0.00,,SCT033,0.00,VWS V15.00,2013-07-10 10:45:00,
2013-07-10 06:48:00,74.7,72.2,29.82,NNW,330,0.0,0.0,92,0.00,,,0.00,VWS V14.01,2013-07-10 10:48:00,
2013-07-10 06:53:00,74.7,72.2,29.82,WSW,237,0.0,3.0,92,0.00,,,0.00,VWS V14.01,2013-07-10 10:53:00,
2013-07-10 06:58:00,74.7,72.2,29.82,WSW,237,0.0,0.0,92,0.00,,,0.00,VWS V14.01,2013-07-10 10:58:00,
2013-07-10 07:00:00,74.7,72.2,29.82,WSW,237,0.0,0.0,92,0.00,,SCT033,0.00,VWS V15.00,2013-07-10 11:00:00,
2013-07-10 07:03:00,74.7,72.2,29.82,WSW,237,0.0,0.0,92,0.00,,,0.00,VWS V14.01,2013-07-10 11:03:00,
2013-07-10 07:08:00,74.8,72.3,29.83,WSW,237,0.0,0.0,92,0.00,,,0.00,VWS V14.01,2013-07-10 11:08:00,
2013-07-10 07:13:00,74.9,72.4,29.82,WSW,237,0.0,0.0,92,0.00,,,0.00,VWS V14.01,2013-07-10 11:13:00,
2013-07-10 07:15:00,74.9,72.4,29.82,WSW,237,0.0,0.0,92,0.00,,SCT033,0.00,VWS V15.00,2013-07-10 11:15:00,
2013-07-10 07:18:00,75.0,72.5,29.82,WSW,237,0.0,0.0,92,0.00,,,0.00,VWS V14.01,2013-07-10 11:18:00,
2013-07-10 07:23:00,75.1,72.9,29.82,WSW,237,0.0,0.0,93,0.00,,,0.00,VWS V14.01,2013-07-10 11:23:00,
2013-07-10 07:28:00,75.1,72.9,29.81,WSW,237,0.0,0.0,93,0.00,,,0.00,VWS V14.01,2013-07-10 11:28:00,
2013-07-10 07:30:00,75.1,72.9,29.81,WSW,237,0.0,0.0,93,0.00,,SCT033,0.00,VWS V15.00,2013-07-10 11:30:00,
2013-07-10 07:33:00,75.1,72.9,29.81,SW,224,0.0,4.0,93,0.00,,,0.00,VWS V14.01,2013-07-10 11:33:00,
2013-07-10 07:38:00,75.2,73.0,29.81,SW,219,0.0,0.0,93,0.00,,,0.00,VWS V14.01,2013-07-10 11:38:00,
2013-07-10 07:43:00,75.2,73.0,29.82,SW,230,0.0,0.0,93,0.00,,,0.00,VWS V14.01,2013-07-10 11:43:00,
2013-07-10 07:45:00,75.2,73.0,29.82,SW,230,0.0,0.0,93,0.00,,SCT033,0.00,VWS V15.00,2013-07-10 11:45:00,
2013-07-10 07:48:00,75.3,73.1,29.82,West,259,0.0,5.0,93,0.00,,,0.00,VWS V14.01,2013-07-10 11:48:00,
2013-07-10 07:53:00,75.3,73.1,29.81,West,259,0.0,0.0,93,0.00,,,0.00,VWS V14.01,2013-07-10 11:53:00,
2013-07-10 07:58:00,75.4,73.2,29.81,WSW,240,0.0,4.0,93,0.00,,,0.00,VWS V14.01,2013-07-10 11:58:00,
2013-07-10 08:00:00,75.4,73.2,29.81,SW,230,0.0,0.0,93,0.00,,SCT033,0.00,VWS V15.00,2013-07-10 12:00:00,
2013-07-10 08:03:00,75.6,73.4,29.81,WSW,242,0.0,0.0,93,0.00,,,0.00,VWS V14.01,2013-07-10 12:03:00,
2013-07-10 08:08:00,75.7,73.5,29.81,WSW,237,0.0,0.0,93,0.00,,,0.00,VWS V14.01,2013-07-10 12:08:00,
2013-07-10 08:14:00,75.8,73.6,29.80,WSW,239,0.0,3.0,93,0.00,,,0.00,VWS V14.01,2013-07-10 12:14:00,
2013-07-10 08:15:00,75.8,73.6,29.80,WSW,246,0.0,4.0,93,0.00,,SCT033,0.00,VWS V15.00,2013-07-10 12:15:00,
2013-07-10 08:19:00,75.9,73.7,29.80,WSW,249,3.0,7.0,93,0.00,,,0.00,VWS V14.01,2013-07-10 12:19:00,
2013-07-10 08:24:00,76.0,73.8,29.80,West,274,1.0,6.0,93,0.00,,,0.00,VWS V14.01,2013-07-10 12:24:00,
2013-07-10 08:29:00,76.2,74.0,29.80,West,262,0.0,0.0,93,0.00,,,0.00,VWS V14.01,2013-07-10 12:29:00,
2013-07-10 08:30:00,76.3,74.1,29.80,WSW,252,0.0,0.0,93,0.00,,SCT033,0.00,VWS V15.00,2013-07-10 12:30:00,
2013-07-10 08:34:00,76.4,74.2,29.80,WSW,244,3.0,8.0,93,0.00,,,0.00,VWS V14.01,2013-07-10 12:34:00,
2013-07-10 08:39:00,76.6,74.4,29.80,WSW,257,0.0,5.0,93,0.00,,,0.00,VWS V14.01,2013-07-10 12:39:00,
2013-07-10 08:44:00,76.9,74.4,29.81,WSW,239,4.0,12.0,92,0.00,,,0.00,VWS V14.01,2013-07-10 12:44:00,
2013-07-10 08:45:00,77.0,74.5,29.81,WNW,285,2.0,6.0,92,0.00,,SCT033,0.00,VWS V15.00,2013-07-10 12:45:00,
2013-07-10 08:49:00,77.1,74.3,29.81,West,266,1.0,3.0,91,0.00,,,0.00,VWS V14.01,2013-07-10 12:49:00,
2013-07-10 08:54:00,77.3,74.5,29.81,WSW,241,0.0,0.0,91,0.00,,,0.00,VWS V14.01,2013-07-10 12:54:00,
2013-07-10 08:59:00,77.6,74.4,29.81,West,270,4.0,11.0,90,0.00,,,0.00,VWS V14.01,2013-07-10 12:59:00,
2013-07-10 09:00:00,77.6,74.4,29.81,West,263,0.0,9.0,90,0.00,,SCT033,0.00,VWS V15.00,2013-07-10 13:00:00,
2013-07-10 09:04:00,77.9,74.4,29.81,WSW,252,2.0,8.0,89,0.00,,,0.00,VWS V14.01,2013-07-10 13:04:00,
2013-07-10 09:09:00,78.1,74.3,29.81,WSW,243,12.0,12.0,88,0.00,,,0.00,VWS V14.01,2013-07-10 13:09:00,
2013-07-10 09:14:00,78.3,74.1,29.81,West,272,5.0,11.0,87,0.00,,SCT150,0.00,VWS V14.01,2013-07-10 13:14:00,
2013-07-10 09:15:00,78.3,74.1,29.81,WSW,240,4.0,6.0,87,0.00,,SCT033,0.00,VWS V15.00,2013-07-10 13:15:00,
2013-07-10 09:19:00,78.4,73.9,29.81,West,277,6.0,8.0,86,0.00,,SCT150,0.00,VWS V14.01,2013-07-10 13:19:00,
2013-07-10 09:24:00,78.3,73.4,29.81,West,265,0.0,7.0,85,0.00,,SCT150,0.00,VWS V14.01,2013-07-10 13:24:00,
2013-07-10 09:29:00,78.5,73.6,29.81,West,260,5.0,6.0,85,0.00,,SCT150,0.00,VWS V14.01,2013-07-10 13:29:00,
2013-07-10 09:30:00,78.5,73.6,29.81,WNW,290,0.0,7.0,85,0.00,,SCT033,0.00,VWS V15.00,2013-07-10 13:30:00,
2013-07-10 09:34:00,78.7,73.5,29.81,West,270,2.0,8.0,84,0.00,,SCT150,0.00,VWS V14.01,2013-07-10 13:34:00,
2013-07-10 09:39:00,78.9,73.3,29.81,WNW,294,5.0,14.0,83,0.00,,SCT150,0.00,VWS V14.01,2013-07-10 13:39:00,
2013-07-10 09:44:00,78.9,72.9,29.81,WSW,252,1.0,9.0,82,0.00,,SCT150,0.00,VWS V14.01,2013-07-10 13:44:00,
2013-07-10 09:45:00,79.0,73.0,29.81,West,266,4.0,6.0,82,0.00,,SCT033,0.00,VWS V15.00,2013-07-10 13:45:00,
2013-07-10 09:49:00,79.2,73.2,29.81,NW,305,0.0,6.0,82,0.00,,SCT150,0.00,VWS V14.01,2013-07-10 13:49:00,
2013-07-10 09:54:00,79.5,73.5,29.81,WNW,296,3.0,11.0,82,0.00,,SCT150,0.00,VWS V14.01,2013-07-10 13:54:00,
2013-07-10 09:59:00,79.7,73.4,29.82,WNW,297,3.0,13.0,81,0.00,,SCT150,0.00,VWS V14.01,2013-07-10 13:59:00,
2013-07-10 10:00:00,79.7,73.4,29.82,West,267,11.0,13.0,81,0.00,,SCT033,0.00,VWS V15.00,2013-07-10 14:00:00,
2013-07-10 10:05:00,79.9,73.2,29.82,West,272,0.0,6.0,80,0.00,,SCT150,0.00,VWS V14.01,2013-07-10 14:05:00,
2013-07-10 10:10:00,80.2,73.5,29.82,West,263,6.0,6.0,80,0.00,,SCT150,0.00,VWS V14.01,2013-07-10 14:10:00,
2013-07-10 10:15:00,80.1,73.0,29.82,WNW,301,12.0,12.0,79,0.00,,SCT150,0.00,VWS V14.01,2013-07-10 14:15:00,
2013-07-10 10:20:00,80.4,73.3,29.82,WSW,247,7.0,7.0,79,0.00,,SCT150,0.00,VWS V14.01,2013-07-10 14:20:00,
2013-07-10 10:25:00,80.4,72.9,29.82,WNW,282,10.0,12.0,78,0.00,,BKN060,0.00,VWS V14.01,2013-07-10 14:25:00,
2013-07-10 10:30:00,80.5,72.6,29.82,WNW,295,14.0,15.0,77,0.00,,BKN060,0.00,VWS V14.01,2013-07-10 14:30:00,
2013-07-10 10:35:00,80.4,72.5,29.82,West,265,0.0,5.0,77,0.00,,BKN060,0.00,VWS V14.01,2013-07-10 14:35:00,
2013-07-10 10:40:00,80.6,72.7,29.82,West,263,1.0,7.0,77,0.00,,BKN060,0.00,VWS V14.01,2013-07-10 14:40:00,
2013-07-10 10:45:00,80.8,72.9,29.82,West,261,8.0,8.0,77,0.00,,BKN060,0.00,VWS V14.01,2013-07-10 14:45:00,
2013-07-10 10:50:00,81.0,73.1,29.81,WSW,258,0.0,8.0,77,0.00,,BKN060,0.00,VWS V14.01,2013-07-10 14:50:00,
2013-07-10 10:55:00,81.1,73.2,29.81,West,265,0.0,13.0,77,0.00,,BKN060,0.00,VWS V14.01,2013-07-10 14:55:00,
2013-07-10 11:00:00,81.2,72.9,29.81,West,281,5.0,9.0,76,0.00,,BKN060,0.00,VWS V14.01,2013-07-10 15:00:00,
2013-07-10 11:05:00,81.0,72.7,29.81,West,274,0.0,8.0,76,0.00,,BKN060,0.00,VWS V14.01,2013-07-10 15:05:00,
2013-07-10 11:10:00,81.1,72.8,29.81,NW,311,0.0,4.0,76,0.00,,BKN060,0.00,VWS V14.01,2013-07-10 15:10:00,
2013-07-10 11:15:00,81.0,72.3,29.81,West,275,5.0,13.0,75,0.00,,BKN060,0.00,VWS V14.01,2013-07-10 15:15:00,
2013-07-10 11:20:00,80.9,73.0,29.81,West,270,0.0,2.0,77,0.00,,BKN060,0.00,VWS V14.01,2013-07-10 15:20:00,
2013-07-10 11:25:00,81.2,72.5,29.81,NNW,328,9.0,9.0,75,0.00,,BKN020,0.00,VWS V14.01,2013-07-10 15:25:00,
2013-07-10 11:30:00,81.4,71.9,29.81,West,278,1.0,3.0,73,0.00,,BKN020,0.00,VWS V14.01,2013-07-10 15:30:00,
2013-07-10 11:35:00,81.3,71.8,29.81,WNW,285,6.0,16.0,73,0.00,,BKN020,0.00,VWS V14.01,2013-07-10 15:35:00,
2013-07-10 11:41:00,81.2,72.1,29.81,WNW,289,2.0,9.0,74,0.00,,BKN020,0.00,VWS V14.01,2013-07-10 15:41:00,
2013-07-10 11:45:00,81.1,71.6,29.82,WNW,298,0.0,8.0,73,0.00,,SCT033,0.00,VWS V15.00,2013-07-10 15:45:00,
2013-07-10 11:46:00,81.1,71.6,29.82,WNW,303,0.0,3.0,73,0.00,,BKN020,0.00,VWS V14.01,2013-07-10 15:46:00,
2013-07-10 11:51:00,80.9,71.0,29.82,West,261,9.0,11.0,72,0.00,,BKN020,0.00,VWS V14.01,2013-07-10 15:51:00,
2013-07-10 11:56:00,80.9,71.4,29.82,NW,312,2.0,12.0,73,0.00,,BKN020,0.00,VWS V14.01,2013-07-10 15:56:00,
2013-07-10 12:00:00,81.0,71.1,29.82,WNW,284,6.0,15.0,72,0.00,,SCT033,0.00,VWS V15.00,2013-07-10 16:00:00,
2013-07-10 12:01:00,81.1,71.2,29.82,NW,317,6.0,12.0,72,0.00,,BKN020,0.00,VWS V14.01,2013-07-10 16:01:00,
2013-07-10 12:06:00,81.5,71.6,29.82,WNW,286,0.0,11.0,72,0.00,,SCT023,0.00,VWS V14.01,2013-07-10 16:06:00,
2013-07-10 12:11:00,81.6,70.4,29.83,West,278,11.0,11.0,69,0.00,,SCT023,0.00,VWS V14.01,2013-07-10 16:11:00,
2013-07-10 12:15:00,81.6,71.3,29.83,West,265,6.0,11.0,71,0.00,,SCT033,0.00,VWS V15.00,2013-07-10 16:15:00,
2013-07-10 12:16:00,81.7,71.0,29.83,WNW,294,7.0,10.0,70,0.00,,SCT023,0.00,VWS V14.01,2013-07-10 16:16:00,
2013-07-10 12:21:00,81.8,70.6,29.83,WNW,282,2.0,9.0,69,0.00,,SCT023,0.00,VWS V14.01,2013-07-10 16:21:00,
2013-07-10 12:26:00,81.5,70.4,29.83,NW,312,10.0,18.0,69,0.00,,SCT023,0.00,VWS V14.01,2013-07-10 16:26:00,
2013-07-10 12:30:00,81.0,69.9,29.83,NW,308,11.0,12.0,69,0.00,,SCT033,0.00,VWS V15.00,2013-07-10 16:30:00,
2013-07-10 12:31:00,80.9,69.8,29.83,WNW,295,4.0,13.0,69,0.00,,SCT023,0.00,VWS V14.01,2013-07-10 16:31:00,
2013-07-10 12:36:00,80.6,69.5,29.83,WNW,292,9.0,9.0,69,0.00,,SCT023,0.00,VWS V14.01,2013-07-10 16:36:00,
2013-07-10 12:41:00,80.3,69.2,29.84,NW,313,10.0,14.0,69,0.00,,SCT023,0.00,VWS V14.01,2013-07-10 16:41:00,
2013-07-10 12:45:00,80.1,69.4,29.84,North,355,6.0,12.0,70,0.00,,SCT033,0.00,VWS V15.00,2013-07-10 16:45:00,
2013-07-10 12:46:00,80.0,68.9,29.84,NW,307,4.0,13.0,69,0.00,,SCT023,0.00,VWS V14.01,2013-07-10 16:46:00,
2013-07-10 12:51:00,79.8,69.6,29.84,WNW,294,9.0,15.0,71,0.00,,SCT023,0.00,VWS V14.01,2013-07-10 16:51:00,
2013-07-10 12:56:00,79.9,68.8,29.85,West,274,1.0,8.0,69,0.00,,SCT023,0.00,VWS V14.01,2013-07-10 16:56:00,
2013-07-10 13:00:00,80.1,69.0,29.85,WSW,249,7.0,9.0,69,0.00,,SCT033,0.00,VWS V15.00,2013-07-10 17:00:00,
2013-07-10 13:01:00,80.1,69.4,29.85,NW,319,0.0,11.0,70,0.00,,SCT023,0.00,VWS V14.01,2013-07-10 17:01:00,
2013-07-10 13:06:00,79.9,69.2,29.85,WNW,299,0.0,7.0,70,0.00,,SCT023,0.00,VWS V14.01,2013-07-10 17:06:00,
2013-07-10 13:11:00,79.9,69.2,29.85,NW,322,7.0,13.0,70,0.00,,SCT050,0.00,VWS V14.01,2013-07-10 17:11:00,
2013-07-10 13:15:00,80.0,68.5,29.85,NW,315,6.0,13.0,68,0.00,,SCT033,0.00,VWS V15.00,2013-07-10 17:15:00,
2013-07-10 13:17:00,80.1,68.6,29.85,NW,307,10.0,11.0,68,0.00,,SCT050,0.00,VWS V14.01,2013-07-10 17:17:00,
2013-07-10 13:22:00,80.3,68.8,29.84,NW,309,0.0,4.0,68,0.00,,SCT050,0.00,VWS V14.01,2013-07-10 17:22:00,
2013-07-10 13:27:00,80.8,67.9,29.85,NNW,331,11.0,14.0,65,0.00,,SCT050,0.00,VWS V14.01,2013-07-10 17:27:00,
2013-07-10 13:30:00,80.9,68.0,29.85,West,275,2.0,7.0,65,0.00,,SCT033,0.00,VWS V15.00,2013-07-10 17:30:00,
2013-07-10 13:32:00,81.0,68.1,29.85,WNW,290,1.0,8.0,65,0.00,,SCT050,0.00,VWS V14.01,2013-07-10 17:32:00,
2013-07-10 13:37:00,81.1,67.3,29.85,NE,47,0.0,10.0,63,0.00,,SCT050,0.00,VWS V14.01,2013-07-10 17:37:00,
2013-07-10 13:42:00,81.1,66.9,29.85,West,279,9.0,11.0,62,0.00,,SCT050,0.00,VWS V14.01,2013-07-10 17:42:00,
2013-07-10 13:45:00,81.2,66.9,29.85,NW,318,8.0,13.0,62,0.00,,SCT033,0.00,VWS V15.00,2013-07-10 17:45:00,
2013-07-10 13:47:00,81.3,67.1,29.85,WNW,303,3.0,10.0,62,0.00,,SCT050,0.00,VWS V14.01,2013-07-10 17:47:00,
2013-07-10 13:52:00,81.3,65.6,29.85,NW,308,10.0,13.0,59,0.00,,SCT050,0.00,VWS V14.01,2013-07-10 17:52:00,
2013-07-10 13:57:00,81.3,65.1,29.85,West,259,4.0,15.0,58,0.00,,SCT050,0.00,VWS V14.01,2013-07-10 17:57:00,
2013-07-10 14:00:00,81.2,64.5,29.85,NW,320,1.0,11.0,57,0.00,,SCT033,0.00,VWS V15.00,2013-07-10 18:00:00,
2013-07-10 14:02:00,81.2,64.0,29.85,NW,311,13.0,19.0,56,0.00,,SCT050,0.00,VWS V14.01,2013-07-10 18:02:00,
2013-07-10 14:07:00,81.1,64.4,29.85,WNW,286,8.0,14.0,57,0.00,,SCT050,0.00,VWS V14.01,2013-07-10 18:07:00,
2013-07-10 14:12:00,81.0,63.3,29.85,NW,325,6.0,14.0,55,0.00,,SCT210,0.00,VWS V14.01,2013-07-10 18:12:00,
2013-07-10 14:15:00,80.9,64.2,29.85,WNW,293,3.0,12.0,57,0.00,,SCT033,0.00,VWS V15.00,2013-07-10 18:15:00,
2013-07-10 14:17:00,81.0,64.3,29.85,WNW,295,2.0,13.0,57,0.00,,SCT210,0.00,VWS V14.01,2013-07-10 18:17:00,
2013-07-10 14:22:00,81.2,63.5,29.85,West,276,3.0,13.0,55,0.00,,SCT210,0.00,VWS V14.01,2013-07-10 18:22:00,
2013-07-10 14:27:00,81.0,62.8,29.85,NW,305,4.0,18.0,54,0.00,,SCT210,0.00,VWS V14.01,2013-07-10 18:27:00,
2013-07-10 14:30:00,80.8,62.6,29.85,NW,311,2.0,14.0,54,0.00,,SCT033,0.00,VWS V15.00,2013-07-10 18:30:00,
2013-07-10 14:32:00,80.7,62.5,29.85,NW,315,6.0,16.0,54,0.00,,SCT210,0.00,VWS V14.01,2013-07-10 18:32:00,
2013-07-10 14:37:00,80.4,62.2,29.85,WNW,285,3.0,18.0,54,0.00,,SCT210,0.00,VWS V14.01,2013-07-10 18:37:00,
2013-07-10 14:42:00,80.4,63.3,29.85,NW,313,6.0,14.0,56,0.00,,SCT210,0.00,VWS V14.01,2013-07-10 18:42:00,
2013-07-10 14:45:00,80.5,63.4,29.85,WNW,303,7.0,19.0,56,0.00,,SCT033,0.00,VWS V15.00,2013-07-10 18:45:00,
2013-07-10 14:47:00,80.4,62.2,29.85,NW,308,2.0,14.0,54,0.00,,SCT210,0.00,VWS V14.01,2013-07-10 18:47:00,
2013-07-10 14:52:00,80.3,62.7,29.86,NNW,346,8.0,21.0,55,0.00,,SCT210,0.00,VWS V14.01,2013-07-10 18:52:00,
2013-07-10 14:57:00,80.1,63.0,29.86,WNW,284,13.0,16.0,56,0.00,,SCT210,0.00,VWS V14.01,2013-07-10 18:57:00,
2013-07-10 15:00:00,80.1,62.0,29.86,WNW,294,8.0,13.0,54,0.00,,SCT033,0.00,VWS V15.00,2013-07-10 19:00:00,
2013-07-10 15:03:00,80.1,62.0,29.86,NW,313,8.0,18.0,54,0.00,,SCT210,0.00,VWS V14.01,2013-07-10 19:03:00,
2013-07-10 15:08:00,80.1,62.0,29.86,NNW,333,12.0,19.0,54,0.00,,SCT210,0.00,VWS V14.01,2013-07-10 19:08:00,
2013-07-10 15:13:00,79.8,61.7,29.86,WNW,284,18.0,21.0,54,0.00,,SCT210,0.00,VWS V14.01,2013-07-10 19:13:00,
2013-07-10 15:15:00,79.7,61.6,29.86,NW,315,3.0,12.0,54,0.00,,SCT033,0.00,VWS V15.00,2013-07-10 19:15:00,
2013-07-10 15:18:00,79.6,60.4,29.86,NW,321,10.0,12.0,52,0.00,,SCT210,0.00,VWS V14.01,2013-07-10 19:18:00,
2013-07-10 15:23:00,79.6,61.0,29.86,WNW,293,14.0,19.0,53,0.00,,SCT210,0.00,VWS V14.01,2013-07-10 19:23:00,
2013-07-10 15:28:00,79.6,61.0,29.86,NW,315,9.0,17.0,53,0.00,,SCT210,0.00,VWS V14.01,2013-07-10 19:28:00,
2013-07-10 15:30:00,79.7,60.5,29.86,NNW,337,15.0,17.0,52,0.00,,SCT033,0.00,VWS V15.00,2013-07-10 19:30:00,
2013-07-10 15:33:00,79.7,60.5,29.87,WNW,286,12.0,18.0,52,0.00,,SCT210,0.00,VWS V14.01,2013-07-10 19:33:00,
2013-07-10 15:38:00,79.8,60.6,29.87,WNW,291,13.0,15.0,52,0.00,,SCT210,0.00,VWS V14.01,2013-07-10 19:38:00,
2013-07-10 15:43:00,79.8,60.1,29.87,WNW,294,0.0,15.0,51,0.00,,SCT210,0.00,VWS V14.01,2013-07-10 19:43:00,
2013-07-10 15:45:00,79.9,61.3,29.87,NW,311,12.0,12.0,53,0.00,,SCT033,0.00,VWS V15.00,2013-07-10 19:45:00,
2013-07-10 15:48:00,79.8,60.1,29.87,WNW,285,8.0,17.0,51,0.00,,SCT210,0.00,VWS V14.01,2013-07-10 19:48:00,
2013-07-10 15:53:00,79.8,61.2,29.88,West,261,4.0,8.0,53,0.00,,SCT210,0.00,VWS V14.01,2013-07-10 19:53:00,
2013-07-10 15:58:00,79.9,62.3,29.88,WSW,255,4.0,10.0,55,0.00,,SCT210,0.00,VWS V14.01,2013-07-10 19:58:00,
2013-07-10 16:00:00,80.0,61.3,29.88,NW,309,2.0,10.0,53,0.00,,SCT033,0.00,VWS V15.00,2013-07-10 20:00:00,
2013-07-10 16:03:00,80.1,60.4,29.88,WNW,302,8.0,17.0,51,0.00,,SCT210,0.00,VWS V14.01,2013-07-10 20:03:00,
2013-07-10 16:08:00,79.9,59.6,29.88,NW,311,15.0,15.0,50,0.00,,SCT210,0.00,VWS V14.01,2013-07-10 20:08:00,
2013-07-10 16:13:00,79.8,60.1,29.88,WSW,256,7.0,13.0,51,0.00,,SCT210,0.00,VWS V14.01,2013-07-10 20:13:00,
2013-07-10 16:15:00,79.8,60.6,29.88,NW,304,5.0,15.0,52,0.00,,SCT033,0.00,VWS V15.00,2013-07-10 20:15:00,
2013-07-10 16:18:00,79.8,59.5,29.88,WNW,298,14.0,23.0,50,0.00,,SCT210,0.00,VWS V14.01,2013-07-10 20:18:00,
2013-07-10 16:23:00,79.6,58.8,29.88,WNW,292,11.0,15.0,49,0.00,,FEW040,0.00,VWS V14.01,2013-07-10 20:23:00,
2013-07-10 16:28:00,79.7,58.9,29.88,NNW,331,6.0,14.0,49,0.00,,FEW040,0.00,VWS V14.01,2013-07-10 20:28:00,
2013-07-10 16:30:00,79.7,60.0,29.88,West,274,7.0,10.0,51,0.00,,SCT033,0.00,VWS V15.00,2013-07-10 20:30:00,
2013-07-10 16:33:00,79.7,58.9,29.88,WNW,297,20.0,20.0,49,0.00,,FEW040,0.00,VWS V14.01,2013-07-10 20:33:00,
2013-07-10 16:38:00,79.5,59.2,29.88,NW,311,19.0,23.0,50,0.00,,FEW040,0.00,VWS V14.01,2013-07-10 20:38:00,
2013-07-10 16:44:00,79.2,60.1,29.88,WNW,301,1.0,10.0,52,0.00,,FEW040,0.00,VWS V14.01,2013-07-10 20:44:00,
2013-07-10 16:45:00,79.2,60.1,29.87,NW,309,12.0,15.0,52,0.00,,SCT033,0.00,VWS V15.00,2013-07-10 20:45:00,
2013-07-10 16:49:00,79.1,59.4,29.88,NNW,328,11.0,15.0,51,0.00,,FEW040,0.00,VWS V14.01,2013-07-10 20:49:00,
2013-07-10 16:54:00,78.9,59.8,29.88,NW,321,12.0,15.0,52,0.00,,FEW040,0.00,VWS V14.01,2013-07-10 20:54:00,
2013-07-10 16:59:00,78.8,59.7,29.87,West,272,16.0,19.0,52,0.00,,FEW040,0.00,VWS V14.01,2013-07-10 20:59:00,
2013-07-10 17:00:00,78.6,59.0,29.88,WNW,294,12.0,15.0,51,0.00,,SCT033,0.00,VWS V15.00,2013-07-10 21:00:00,
2013-07-10 17:04:00,78.6,60.1,29.88,NW,311,14.0,15.0,53,0.00,,FEW040,0.00,VWS V14.01,2013-07-10 21:04:00,
2013-07-10 17:09:00,78.6,60.1,29.88,NW,311,11.0,17.0,53,0.00,,FEW040,0.00,VWS V14.01,2013-07-10 21:09:00,
2013-07-10 17:14:00,78.6,60.1,29.87,NNW,341,14.0,14.0,53,0.00,,FEW040,0.00,VWS V14.01,2013-07-10 21:14:00,
2013-07-10 17:15:00,78.6,60.1,29.88,NW,322,7.0,17.0,53,0.00,,SCT033,0.00,VWS V15.00,2013-07-10 21:15:00,
2013-07-10 17:19:00,78.6,59.5,29.87,WNW,291,14.0,15.0,52,0.00,,FEW040,0.00,VWS V14.01,2013-07-10 21:19:00,
2013-07-10 17:24:00,78.3,59.2,29.87,NW,310,8.0,22.0,52,0.00,,FEW050,0.00,VWS V14.01,2013-07-10 21:24:00,
2013-07-10 17:29:00,78.0,59.5,29.88,NW,318,0.0,11.0,53,0.00,,FEW050,0.00,VWS V14.01,2013-07-10 21:29:00,
2013-07-10 17:30:00,78.0,59.5,29.87,West,276,11.0,14.0,53,0.00,,SCT033,0.00,VWS V15.00,2013-07-10 21:30:00,
2013-07-10 17:34:00,78.0,59.5,29.88,NW,309,6.0,10.0,53,0.00,,FEW050,0.00,VWS V14.01,2013-07-10 21:34:00,
2013-07-10 17:39:00,77.9,59.4,29.87,NNW,341,3.0,12.0,53,0.00,,FEW050,0.00,VWS V14.01,2013-07-10 21:39:00,
2013-07-10 17:44:00,77.7,58.2,29.88,West,269,6.0,14.0,51,0.00,,FEW050,0.00,VWS V14.01,2013-07-10 21:44:00,
2013-07-10 17:45:00,77.7,58.7,29.88,NW,311,3.0,14.0,52,0.00,,SCT033,0.00,VWS V15.00,2013-07-10 21:45:00,
2013-07-10 17:49:00,77.4,57.9,29.88,West,278,11.0,18.0,51,0.00,,FEW050,0.00,VWS V14.01,2013-07-10 21:49:00,
2013-07-10 17:54:00,77.0,57.5,29.88,NW,309,16.0,16.0,51,0.00,,FEW050,0.00,VWS V14.01,2013-07-10 21:54:00,
2013-07-10 17:59:00,76.7,57.2,29.88,NW,316,6.0,13.0,51,0.00,,FEW050,0.00,VWS V14.01,2013-07-10 21:59:00,
2013-07-10 18:00:00,76.7,57.2,29.88,NW,309,5.0,15.0,51,0.00,,SCT033,0.00,VWS V15.00,2013-07-10 22:00:00,
2013-07-10 18:04:00,76.6,58.2,29.88,NW,322,17.0,17.0,53,0.00,,FEW050,0.00,VWS V14.01,2013-07-10 22:04:00,
2013-07-10 18:09:00,76.4,58.0,29.88,NW,308,9.0,10.0,53,0.00,,FEW050,0.00,VWS V14.01,2013-07-10 22:09:00,
2013-07-10 18:14:00,76.3,57.4,29.88,NNW,341,15.0,15.0,52,0.00,,FEW050,0.00,VWS V14.01,2013-07-10 22:14:00,
2013-07-10 18:15:00,76.3,57.9,29.88,NW,310,11.0,15.0,53,0.00,,SCT033,0.00,VWS V15.00,2013-07-10 22:15:00,
2013-07-10 18:19:00,76.1,57.8,29.88,NW,318,6.0,16.0,53,0.00,,FEW050,0.00,VWS V14.01,2013-07-10 22:19:00,
2013-07-10 18:24:00,76.1,57.8,29.88,WNW,290,1.0,14.0,53,0.00,,FEW050,0.00,VWS V14.01,2013-07-10 22:24:00,
2013-07-10 18:29:00,76.1,58.3,29.88,NNW,346,4.0,13.0,54,0.00,,FEW050,0.00,VWS V14.01,2013-07-10 22:29:00,
2013-07-10 18:30:00,76.1,57.7,29.88,North,11,12.0,15.0,53,0.00,,SCT033,0.00,VWS V15.00,2013-07-10 22:30:00,
2013-07-10 18:34:00,76.0,57.1,29.88,WNW,287,13.0,13.0,52,0.00,,FEW050,0.00,VWS V14.01,2013-07-10 22:34:00,
2013-07-10 18:40:00,75.8,56.9,29.88,NW,324,3.0,12.0,52,0.00,,FEW050,0.00,VWS V14.01,2013-07-10 22:40:00,
2013-07-10 18:45:00,75.6,56.8,29.88,NNW,341,9.0,13.0,52,0.00,,FEW050,0.00,VWS V14.01,2013-07-10 22:45:00,
2013-07-10 18:50:00,75.6,56.8,29.88,WNW,284,6.0,12.0,52,0.00,,FEW050,0.00,VWS V14.01,2013-07-10 22:50:00,
2013-07-10 18:55:00,75.5,57.2,29.88,NNW,329,18.0,19.0,53,0.00,,FEW050,0.00,VWS V14.01,2013-07-10 22:55:00,
2013-07-10 19:00:00,75.4,57.1,29.88,NW,316,13.0,17.0,53,0.00,,FEW050,0.00,VWS V14.01,2013-07-10 23:00:00,
2013-07-10 19:05:00,75.3,57.5,29.88,WSW,253,2.0,13.0,54,0.00,,FEW050,0.00,VWS V14.01,2013-07-10 23:05:00,
2013-07-10 19:10:00,75.3,57.5,29.89,NW,305,8.0,14.0,54,0.00,,FEW050,0.00,VWS V14.01,2013-07-10 23:10:00,
2013-07-10 19:15:00,75.3,58.0,29.89,NNW,333,2.0,9.0,55,0.00,,FEW050,0.00,VWS V14.01,2013-07-10 23:15:00,
2013-07-10 19:20:00,75.2,57.9,29.89,NW,317,2.0,13.0,55,0.00,,FEW050,0.00,VWS V14.01,2013-07-10 23:20:00,
2013-07-10 19:25:00,75.1,57.3,29.90,WNW,294,10.0,16.0,54,0.00,,FEW047,0.00,VWS V14.01,2013-07-10 23:25:00,
2013-07-10 19:30:00,75.0,57.8,29.90,NNW,334,0.0,10.0,55,0.00,,FEW047,0.00,VWS V14.01,2013-07-10 23:30:00,
2013-07-10 19:35:00,74.9,58.2,29.90,NNW,341,2.0,8.0,56,0.00,,FEW047,0.00,VWS V14.01,2013-07-10 23:35:00,
2013-07-10 19:40:00,74.9,58.2,29.90,NW,323,0.0,0.0,56,0.00,,FEW047,0.00,VWS V14.01,2013-07-10 23:40:00,
2013-07-10 19:45:00,74.8,58.1,29.90,North,358,1.0,9.0,56,0.00,,FEW047,0.00,VWS V14.01,2013-07-10 23:45:00,
2013-07-10 19:50:00,74.7,58.0,29.90,NW,311,1.0,12.0,56,0.00,,FEW047,0.00,VWS V14.01,2013-07-10 23:50:00,
2013-07-10 19:55:00,74.5,57.3,29.90,NNW,341,0.0,9.0,55,0.00,,FEW047,0.00,VWS V14.01,2013-07-10 23:55:00,
2013-07-10 20:00:00,74.4,57.2,29.90,North,3,0.0,11.0,55,0.00,,FEW047,0.00,VWS V14.01,2013-07-11 00:00:00,
2013-07-10 20:05:00,74.2,57.0,29.91,NW,323,0.0,11.0,55,0.00,,FEW047,0.00,VWS V14.01,2013-07-11 00:05:00,
2013-07-10 20:10:00,74.0,56.8,29.91,NNW,329,12.0,13.0,55,0.00,,FEW047,0.00,VWS V14.01,2013-07-11 00:10:00,
2013-07-10 20:15:00,73.8,56.1,29.91,NW,324,0.0,11.0,54,0.00,,FEW047,0.00,VWS V14.01,2013-07-11 00:15:00,
2013-07-10 20:20:00,73.6,56.5,29.91,North,356,0.0,8.0,55,0.00,,FEW047,0.00,VWS V14.01,2013-07-11 00:20:00,
2013-07-10 20:26:00,73.5,56.4,29.92,NNW,346,2.0,7.0,55,0.00,,FEW047,0.00,VWS V14.01,2013-07-11 00:26:00,
2013-07-10 20:27:00,73.5,56.4,29.91,NW,325,0.0,0.0,55,0.00,,FEW047,0.00,VWS V14.01,2013-07-11 00:27:00,
2013-07-10 20:30:00,73.4,56.3,29.92,NW,315,0.0,1.0,55,0.00,,SCT033,0.00,VWS V15.00,2013-07-11 00:30:00,
2013-07-10 20:32:00,73.4,56.3,29.92,North,357,3.0,7.0,55,0.00,,FEW047,0.00,VWS V14.01,2013-07-11 00:32:00,
2013-07-10 20:37:00,73.2,56.6,29.91,NW,313,5.0,14.0,56,0.00,,FEW047,0.00,VWS V14.01,2013-07-11 00:37:00,
2013-07-10 20:42:00,73.1,56.5,29.92,NW,313,1.0,6.0,56,0.00,,FEW047,0.00,VWS V14.01,2013-07-11 00:42:00,
2013-07-10 20:45:00,72.9,56.3,29.92,NW,307,0.0,0.0,56,0.00,,SCT033,0.00,VWS V15.00,2013-07-11 00:45:00,
2013-07-10 20:47:00,72.8,56.7,29.92,NNW,332,0.0,6.0,57,0.00,,FEW047,0.00,VWS V14.01,2013-07-11 00:47:00,
2013-07-10 20:52:00,72.7,56.6,29.92,NW,321,4.0,5.0,57,0.00,,FEW047,0.00,VWS V14.01,2013-07-11 00:52:00,
2013-07-10 20:57:00,72.4,56.3,29.92,NNW,327,3.0,3.0,57,0.00,,FEW047,0.00,VWS V14.01,2013-07-11 00:57:00,
2013-07-10 21:00:00,72.3,56.2,29.92,NW,309,0.0,0.0,57,0.00,,SCT033,0.00,VWS V15.00,2013-07-11 01:00:00,
2013-07-10 21:02:00,72.2,56.6,29.92,NNW,346,0.0,5.0,58,0.00,,FEW047,0.00,VWS V14.01,2013-07-11 01:02:00,
2013-07-10 21:07:00,72.0,56.4,29.92,NNW,330,0.0,0.0,58,0.00,,FEW047,0.00,VWS V14.01,2013-07-11 01:07:00,
2013-07-10 21:12:00,71.8,56.7,29.92,NW,321,0.0,4.0,59,0.00,,FEW047,0.00,VWS V14.01,2013-07-11 01:12:00,
2013-07-10 21:15:00,71.7,56.6,29.93,NW,320,0.0,0.0,59,0.00,,SCT033,0.00,VWS V15.00,2013-07-11 01:15:00,
2013-07-10 21:17:00,71.6,56.5,29.93,NW,321,0.0,0.0,59,0.00,,FEW047,0.00,VWS V14.01,2013-07-11 01:17:00,
2013-07-10 21:22:00,71.5,56.9,29.93,NW,319,0.0,0.0,60,0.00,,FEW047,0.00,VWS V14.01,2013-07-11 01:22:00,
2013-07-10 21:27:00,71.3,57.2,29.93,NW,318,0.0,0.0,61,0.00,,FEW047,0.00,VWS V14.01,2013-07-11 01:27:00,
2013-07-10 21:30:00,71.1,57.0,29.93,NW,318,0.0,0.0,61,0.00,,SCT033,0.00,VWS V15.00,2013-07-11 01:30:00,
2013-07-10 21:32:00,71.0,56.9,29.93,NW,317,0.0,0.0,61,0.00,,FEW047,0.00,VWS V14.01,2013-07-11 01:32:00,
2013-07-10 21:37:00,70.8,57.2,29.93,NW,308,0.0,1.0,62,0.00,,FEW047,0.00,VWS V14.01,2013-07-11 01:37:00,
2013-07-10 21:42:00,70.5,56.9,29.94,NW,312,0.0,0.0,62,0.00,,FEW047,0.00,VWS V14.01,2013-07-11 01:42:00,
2013-07-10 21:45:00,70.4,57.2,29.94,NW,312,0.0,0.0,63,0.00,,SCT033,0.00,VWS V15.00,2013-07-11 01:45:00,
2013-07-10 21:47:00,70.3,57.1,29.94,NW,312,0.0,0.0,63,0.00,,FEW047,0.00,VWS V14.01,2013-07-11 01:47:00,
2013-07-10 21:53:00,70.1,56.9,29.95,NW,312,0.0,0.0,63,0.00,,FEW047,0.00,VWS V14.01,2013-07-11 01:53:00,
2013-07-10 21:58:00,69.9,56.8,29.95,NW,312,0.0,0.0,63,0.00,,FEW047,0.00,VWS V14.01,2013-07-11 01:58:00,
2013-07-10 22:00:00,69.8,56.7,29.95,NW,312,0.0,0.0,63,0.00,,SCT033,0.00,VWS V15.00,2013-07-11 02:00:00,
2013-07-10 22:03:00,69.7,56.6,29.95,NW,312,0.0,0.0,63,0.00,,FEW047,0.00,VWS V14.01,2013-07-11 02:03:00,
2013-07-10 22:08:00,69.5,56.4,29.95,NW,312,0.0,0.0,63,0.00,,FEW047,0.00,VWS V14.01,2013-07-11 02:08:00,
2013-07-10 22:13:00,69.3,56.6,29.96,NW,312,0.0,0.0,64,0.00,,FEW047,0.00,VWS V14.01,2013-07-11 02:13:00,
2013-07-10 22:15:00,69.1,56.4,29.96,NW,312,0.0,0.0,64,0.00,,SCT033,0.00,VWS V15.00,2013-07-11 02:15:00,
2013-07-10 22:18:00,69.0,56.8,29.96,NW,312,0.0,0.0,65,0.00,,FEW047,0.00,VWS V14.01,2013-07-11 02:18:00,
2013-07-10 22:23:00,68.7,56.5,29.96,NW,312,0.0,0.0,65,0.00,,CLR,0.00,VWS V14.01,2013-07-11 02:23:00,
2013-07-10 22:28:00,68.4,57.0,29.96,NW,312,0.0,0.0,67,0.00,,CLR,0.00,VWS V14.01,2013-07-11 02:28:00,
2013-07-10 22:30:00,68.2,57.2,29.96,NW,312,0.0,0.0,68,0.00,,SCT033,0.00,VWS V15.00,2013-07-11 02:30:00,
2013-07-10 22:33:00,68.0,57.1,29.96,NW,312,0.0,0.0,68,0.00,,CLR,0.00,VWS V14.01,2013-07-11 02:33:00,
2013-07-10 22:38:00,67.6,56.7,29.97,NW,312,0.0,0.0,68,0.00,,CLR,0.00,VWS V14.01,2013-07-11 02:38:00,
2013-07-10 22:43:00,67.2,56.7,29.96,NW,312,0.0,0.0,69,0.00,,CLR,0.00,VWS V14.01,2013-07-11 02:43:00,
2013-07-10 22:45:00,67.1,56.6,29.97,NW,312,0.0,0.0,69,0.00,,SCT033,0.00,VWS V15.00,2013-07-11 02:45:00,
2013-07-10 22:48:00,66.8,56.7,29.97,NW,312,0.0,0.0,70,0.00,,CLR,0.00,VWS V14.01,2013-07-11 02:48:00,
2013-07-10 22:53:00,66.4,56.3,29.97,NW,312,0.0,0.0,70,0.00,,CLR,0.00,VWS V14.01,2013-07-11 02:53:00,
2013-07-10 22:56:00,66.1,56.4,29.97,NW,312,0.0,0.0,71,0.00,,CLR,0.00,VWS V14.01,2013-07-11 02:56:00,
2013-07-10 23:00:00,65.8,56.2,29.97,NW,312,0.0,0.0,71,0.00,,SCT033,0.00,VWS V15.00,2013-07-11 03:00:00,
2013-07-10 23:01:00,65.7,56.4,29.97,NW,312,0.0,0.0,72,0.00,,CLR,0.00,VWS V14.01,2013-07-11 03:01:00,
2013-07-10 23:06:00,65.4,56.5,29.97,NW,312,0.0,0.0,73,0.00,,CLR,0.00,VWS V14.01,2013-07-11 03:06:00,
2013-07-10 23:11:00,65.0,56.5,29.97,NW,312,0.0,0.0,74,0.00,,CLR,0.00,VWS V14.01,2013-07-11 03:11:00,
2013-07-10 23:15:00,64.7,56.2,29.97,NW,312,0.0,0.0,74,0.00,,SCT033,0.00,VWS V15.00,2013-07-11 03:15:00,
2013-07-10 23:16:00,64.6,56.1,29.97,NW,312,0.0,0.0,74,0.00,,CLR,0.00,VWS V14.01,2013-07-11 03:16:00,
2013-07-10 23:21:00,64.2,55.8,29.98,NW,312,0.0,0.0,74,0.00,,CLR,0.00,VWS V14.01,2013-07-11 03:21:00,
2013-07-10 23:26:00,63.9,55.8,29.97,NW,312,0.0,0.0,75,0.00,,CLR,0.00,VWS V14.01,2013-07-11 03:26:00,
2013-07-10 23:30:00,63.6,55.5,29.97,NW,312,0.0,0.0,75,0.00,,SCT033,0.00,VWS V15.00,2013-07-11 03:30:00,
2013-07-10 23:31:00,63.6,55.9,29.97,NW,312,0.0,0.0,76,0.00,,CLR,0.00,VWS V14.01,2013-07-11 03:31:00,
2013-07-10 23:36:00,63.3,56.0,29.97,NW,312,0.0,0.0,77,0.00,,CLR,0.00,VWS V14.01,2013-07-11 03:36:00,
2013-07-10 23:41:00,63.0,55.7,29.97,NW,312,0.0,0.0,77,0.00,,CLR,0.00,VWS V14.01,2013-07-11 03:41:00,
2013-07-10 23:45:00,62.8,55.5,29.97,NW,312,0.0,0.0,77,0.00,,SCT033,0.00,VWS V15.00,2013-07-11 03:45:00,
2013-07-10 23:47:00,62.7,55.4,29.98,NW,312,0.0,0.0,77,0.00,,CLR,0.00,VWS V14.01,2013-07-11 03:47:00,
2013-07-10 23:52:00,62.5,55.6,29.98,NW,312,0.0,0.0,78,0.00,,CLR,0.00,VWS V14.01,2013-07-11 03:52:00,
2013-07-10 23:57:00,62.2,55.3,29.98,NW,312,0.0,0.0,78,0.00,,CLR,0.00,VWS V14.01,2013-07-11 03:57:00,